MRIT2: Lake Meredith

                                SHEF ID:       MRIT2     Lake Meredith
STATION TYPE: RESERVOIR
Flood Pool: Bottom = 2941.30, Top = 2965.00

PRECIP ELEVATION STORAGE INFLOW RELEASE WIND-DIRWIND-SPEED
in ft ac-ft cfs cfs deg mph
Ccp-Rev Ccp-Rev Ccp-Rev Rev-Regi Rev-Regi Ccp-Rev Ccp-Rev
(America/Chicago)
07/05 00:00 ---- 2891.88 264167 0 0 ---- ----
07/05 01:00 ---- 2891.88 264167 0 0 ---- ----
07/05 02:00 ---- 2891.87 264089 0 0 ---- ----
07/05 03:00 ---- 2891.86 264011 0 0 ---- ----
07/05 04:00 ---- 2891.88 264167 0 0 ---- ----
07/05 05:00 ---- 2891.86 264011 0 0 ---- ----
07/05 06:00 ---- 2891.81 263619 0 0 ---- ----
07/05 07:00 ---- 2891.84 263854 0 0 ---- ----
07/05 08:00 ---- 2891.83 263776 0 0 ---- ----
07/05 09:00 ---- 2891.85 263932 130 0 ---- ----
07/05 10:00 ---- 2891.83 263776 130 0 ---- ----
07/05 11:00 ---- 2891.86 264011 130 0 ---- ----
07/05 12:00 ---- 2891.85 263932 241 0 ---- ----
07/05 13:00 ---- 2891.85 263932 287 0 ---- ----
07/05 14:00 ---- 2891.88 264167 157 0 ---- ----
07/05 15:00 ---- 2891.89 264246 157 0 ---- ----
07/05 16:00 ---- 2891.89 264246 157 0 ---- ----
07/05 17:00 ---- 2891.88 264167 46 0 ---- ----
07/05 18:00 ---- 2891.89 264246 38 0 ---- ----
07/05 19:00 ---- 2891.89 264246 92 0 ---- ----
07/05 20:00 ---- 2891.88 264167 92 0 ---- ----
07/05 21:00 ---- 2891.90 264324 146 0 ---- ----
07/05 22:00 ---- 2891.89 264246 92 0 ---- ----
07/05 23:00 ---- ---- ---- ---- ---- ---- ----
Data processed at Sun 06Jul2025 04:43 GMT

Parsing this webpage?

Checkout our new Data API! CWMSDataAPI (CDA)

Timeseries IDs (TSIDs)

TSIDs used from left to right in the data table
MERE.Precip-Inc.Total.1Hour.1Hour.Ccp-Rev
MERE.Elev.Inst.1Hour.0.Ccp-Rev
MERE.Stor.Inst.1Hour.0.Ccp-Rev
MERE.Flow-Res In.Ave.1Hour.1Hour.Rev-Regi-Computed
MERE.Flow-Res Out.Ave.1Hour.1Hour.Rev-Regi-Flowgroup
MERE.Dir-Wind.Inst.1Hour.0.Ccp-Rev
MERE.Speed-Wind.Inst.1Hour.0.Ccp-Rev

                            

All information presented herein is the property of the government of the United States of America and may be revised or deleted at any time without prior notice. Dissemination of this information without the expressed written consent of the Public Affairs Office, Tulsa District U.S. Army Corps of Engineers is strictly prohibited. These data are gathered electronically and, as presented, have NOT undergone any form of quality control. These data are NOT guaranteed to be valid or correct.